User: anonymous   Login
Location: Oshawa
(43.9000°N, 78.8670°W)
Time: 06:26:29
(UTC-04:00)
Language:

CARTOSAT-1 - Orbit

View from above orbital plane
View from above orbital plane
View from above satellite
View from above satellite

Ground track
Ground track

The orbit data is extracted from the following two-line orbital elements,

1 28649U 05017A   16125.86845925  .00000393  00000-0  54278-4 0  9999
2 28649  97.9001 199.6157 0001273 348.0548  12.0628 14.83432063595440
Epoch (UTC): 04 May 2016 20:50:34
Eccentricity: 0.0001273
inclination: 97.9001°
perigee height: 617 km
apogee height: 619 km
right ascension of ascending node: 199.6157°
argument of perigee: 348.0548°
revolutions per day: 14.83432063
mean anomaly at epoch: 12.0628°
orbit number at epoch: 59544

The dashed part of the orbit path shows where the satellite is in the earth's shadow,  

DLR